Data No.,UTC Date,UTC Time,Latitude,Longitude,Course(deg),Temp(degC),Sal(psu)
14976,2011/12/18,23:31:00,25-04.2500N,119-59.8800E,231,19.022,33.0784
14977,2011/12/18,23:32:00,25-04.1400N,119-59.7300E,228,19.066,33.0886
14978,2011/12/18,23:33:00,25-04.0100N,119-59.5800E,226,19.103,33.1018
14979,2011/12/18,23:34:00,25-03.8900N,119-59.4500E,226,19.128,33.1183
14980,2011/12/18,23:35:00,25-03.7800N,119-59.2900E,233,19.142,33.1302
14981,2011/12/18,23:36:00,25-03.6600N,119-59.1400E,223,19.141,33.1365
14982,2011/12/18,23:37:00,25-03.5300N,119-59.0000E,227,19.152,33.1402
14983,2011/12/18,23:38:00,25-03.4200N,119-58.8400E,233,19.119,33.1426
14984,2011/12/18,23:39:00,25-03.3000N,119-58.6800E,228,18.955,33.1464
14985,2011/12/18,23:40:00,25-03.1700N,119-58.5300E,221,18.814,33.1068
14986,2011/12/18,23:41:00,25-03.0500N,119-58.3800E,231,18.753,33.0428
14987,2011/12/18,23:42:00,25-02.9300N,119-58.2100E,232,18.732,32.9954
14988,2011/12/18,23:43:00,25-02.8000N,119-58.0600E,225,18.743,32.9798
14989,2011/12/18,23:44:00,25-02.6700N,119-57.9100E,224,18.709,32.9875
14990,2011/12/18,23:45:00,25-02.5300N,119-57.7700E,225,18.681,32.9805
14991,2011/12/18,23:46:00,25-02.4100N,119-57.6100E,230,18.662,32.9586
14992,2011/12/18,23:47:00,25-02.3000N,119-57.4600E,229,18.667,32.946
14993,2011/12/18,23:48:00,25-02.1700N,119-57.3000E,228,18.676,32.9389
14994,2011/12/18,23:49:00,25-02.0300N,119-57.1600E,223,18.655,32.9388
14995,2011/12/18,23:50:00,25-01.9000N,119-57.0100E,226,18.646,32.9329
14996,2011/12/18,23:51:00,25-01.7700N,119-56.8500E,226,18.675,32.9281
14997,2011/12/18,23:52:00,25-01.6400N,119-56.7000E,226,18.662,32.9363
14998,2011/12/18,23:53:00,25-01.5200N,119-56.5400E,228,18.641,32.9347
14999,2011/12/18,23:54:00,25-01.3900N,119-56.3900E,225,18.646,32.9263
15000,2011/12/18,23:55:00,25-01.2500N,119-56.2400E,226,18.631,32.914
15001,2011/12/18,23:56:00,25-01.1100N,119-56.0900E,221,18.626,32.9132
15002,2011/12/18,23:57:00,25-00.9800N,119-55.9400E,231,18.617,32.9072
15003,2011/12/18,23:58:00,25-00.8600N,119-55.7800E,227,18.657,32.9066
15004,2011/12/18,23:59:00,25-00.7300N,119-55.6300E,225,18.657,32.9107
15005,2011/12/19,0:00:00,25-00.5800N,119-55.4800E,222,18.713,32.933
15006,2011/12/19,0:01:00,25-00.4400N,119-55.3200E,227,18.734,32.9253
15007,2011/12/19,0:02:00,25-00.3000N,119-55.1500E,227,18.803,32.9452
15008,2011/12/19,0:03:00,25-00.1800N,119-55.0000E,226,18.829,32.9505
15009,2011/12/19,0:04:00,25-00.0400N,119-54.8400E,225,18.828,32.9624
15010,2011/12/19,0:05:00,24-59.9000N,119-54.6800E,226,18.827,32.9539
15011,2011/12/19,0:06:00,24-59.7600N,119-54.5200E,227,18.817,32.9414
15012,2011/12/19,0:07:00,24-59.6200N,119-54.3600E,228,18.843,32.9309
15013,2011/12/19,0:08:00,24-59.5000N,119-54.1900E,229,18.854,32.9252
15014,2011/12/19,0:09:00,24-59.3700N,119-54.0300E,228,18.843,32.9333
15015,2011/12/19,0:10:00,24-59.2300N,119-53.8800E,222,18.837,32.9314
15016,2011/12/19,0:11:00,24-59.0900N,119-53.7300E,226,18.867,32.928
15017,2011/12/19,0:12:00,24-58.9700N,119-53.5600E,230,18.88,32.9286
15018,2011/12/19,0:13:00,24-58.8400N,119-53.4000E,227,18.877,32.9427
15019,2011/12/19,0:14:00,24-58.6900N,119-53.2400E,225,18.9,32.9525
15020,2011/12/19,0:15:00,24-58.5600N,119-53.0700E,231,18.916,32.9584
15021,2011/12/19,0:16:00,24-58.4300N,119-52.9100E,224,18.916,32.9681
15022,2011/12/19,0:17:00,24-58.2900N,119-52.7400E,227,18.913,32.9768
15023,2011/12/19,0:18:00,24-58.1600N,119-52.5700E,229,18.934,32.982
15024,2011/12/19,0:19:00,24-58.0300N,119-52.4100E,227,18.939,32.9891
15025,2011/12/19,0:20:00,24-57.9100N,119-52.2400E,230,18.953,33.0049
15026,2011/12/19,0:21:00,24-57.7900N,119-52.0800E,230,18.96,33.0105
15027,2011/12/19,0:22:00,24-57.6600N,119-51.9300E,225,18.943,33.0176
15028,2011/12/19,0:23:00,24-57.5200N,119-51.7700E,223,18.934,33.0186
15029,2011/12/19,0:24:00,24-57.3900N,119-51.6100E,228,18.941,33.0147
15030,2011/12/19,0:25:00,24-57.2600N,119-51.4300E,236,18.947,33.0165
15031,2011/12/19,0:26:00,24-57.1500N,119-51.2700E,230,19.118,33.0216
15032,2011/12/19,0:27:00,24-57.0100N,119-51.1200E,222,19.149,33.0628
15033,2011/12/19,0:28:00,24-56.8900N,119-50.9600E,233,19.144,33.165
15034,2011/12/19,0:29:00,24-56.7900N,119-50.7900E,232,19.108,33.2096
15035,2011/12/19,0:30:00,24-56.6600N,119-50.6400E,225,19.091,33.1989
15036,2011/12/19,0:31:00,24-56.5300N,119-50.4900E,225,19.088,33.1747
15037,2011/12/19,0:32:00,24-56.4100N,119-50.3200E,231,19.078,33.1673
15038,2011/12/19,0:33:00,24-56.2800N,119-50.1600E,229,19.078,33.1633
15039,2011/12/19,0:34:00,24-56.1600N,119-50.0000E,226,19.08,33.1608
15040,2011/12/19,0:35:00,24-56.0100N,119-49.8500E,220,19.106,33.1649
15041,2011/12/19,0:36:00,24-55.8900N,119-49.6800E,233,19.084,33.1758
15042,2011/12/19,0:37:00,24-55.7500N,119-49.5200E,224,19.057,33.165
15043,2011/12/19,0:38:00,24-55.5900N,119-49.3800E,216,19.033,33.1438
15044,2011/12/19,0:39:00,24-55.4300N,119-49.2500E,216,19.015,33.1267
15045,2011/12/19,0:40:00,24-55.2700N,119-49.1200E,216,18.994,33.1099
15046,2011/12/19,0:41:00,24-55.1200N,119-48.9800E,220,18.98,33.0999
15047,2011/12/19,0:42:00,24-54.9800N,119-48.8300E,227,18.971,33.0894
15048,2011/12/19,0:43:00,24-54.8600N,119-48.6700E,227,18.973,33.083
15049,2011/12/19,0:44:00,24-54.7300N,119-48.5200E,227,18.982,33.0845
15050,2011/12/19,0:45:00,24-54.5900N,119-48.3700E,224,18.987,33.0916
15051,2011/12/19,0:46:00,24-54.4600N,119-48.2100E,229,19.012,33.0971
15052,2011/12/19,0:47:00,24-54.3400N,119-48.0400E,230,19.07,33.0954
15053,2011/12/19,0:48:00,24-54.2000N,119-47.8800E,226,19.101,33.1066
15054,2011/12/19,0:49:00,24-54.0700N,119-47.7200E,228,19.131,33.1258
15055,2011/12/19,0:50:00,24-53.9400N,119-47.5500E,230,19.157,33.1419
15056,2011/12/19,0:51:00,24-53.8200N,119-47.3800E,230,19.187,33.1529
15057,2011/12/19,0:52:00,24-53.6900N,119-47.2200E,227,19.319,33.1768
15058,2011/12/19,0:53:00,24-53.5500N,119-47.0600E,226,19.403,33.1897
15059,2011/12/19,0:54:00,24-53.4200N,119-46.8900E,232,19.412,33.2451
15060,2011/12/19,0:55:00,24-53.3000N,119-46.7200E,231,19.41,33.2423
15061,2011/12/19,0:56:00,24-53.1600N,119-46.5600E,224,19.4,33.2304
15062,2011/12/19,0:57:00,24-53.0300N,119-46.4100E,226,19.383,33.2224
15063,2011/12/19,0:58:00,24-52.9000N,119-46.2500E,231,19.376,33.214
15064,2011/12/19,0:59:00,24-52.7800N,119-46.0800E,230,19.369,33.2076
15065,2011/12/19,1:00:00,24-52.6600N,119-45.9200E,227,19.367,33.2049
15066,2011/12/19,1:01:00,24-52.5200N,119-45.7700E,221,19.349,33.2081
15067,2011/12/19,1:02:00,24-52.3700N,119-45.6200E,221,18.943,33.2125
15068,2011/12/19,1:03:00,24-52.2400N,119-45.4500E,229,18.838,33.162
15069,2011/12/19,1:04:00,24-52.1100N,119-45.2900E,228,18.805,32.9798
15070,2011/12/19,1:05:00,24-51.9800N,119-45.1200E,228,18.776,32.9218
15071,2011/12/19,1:06:00,24-51.8400N,119-44.9800E,221,18.727,32.9052
15072,2011/12/19,1:07:00,24-51.7000N,119-44.8200E,224,18.742,32.878
15073,2011/12/19,1:08:00,24-51.5700N,119-44.6600E,227,18.76,32.8674
15074,2011/12/19,1:09:00,24-51.4400N,119-44.5000E,226,18.755,32.8661
15075,2011/12/19,1:10:00,24-51.3000N,119-44.3400E,225,18.777,32.8736
15076,2011/12/19,1:11:00,24-51.1600N,119-44.1800E,231,18.773,32.879
15077,2011/12/19,1:12:00,24-51.0400N,119-44.0000E,233,18.779,32.8827
15078,2011/12/19,1:13:00,24-50.9200N,119-43.8200E,232,18.798,32.876
15079,2011/12/19,1:14:00,24-50.8000N,119-43.6400E,235,18.796,32.8847
15080,2011/12/19,1:15:00,24-50.6900N,119-43.4600E,235,18.812,32.889
15081,2011/12/19,1:16:00,24-50.5700N,119-43.2900E,229,18.841,32.8965
15082,2011/12/19,1:17:00,24-50.4500N,119-43.1200E,231,18.837,32.9104
15083,2011/12/19,1:18:00,24-50.3300N,119-42.9400E,233,18.888,32.9218
15084,2011/12/19,1:19:00,24-50.2100N,119-42.7700E,232,18.918,32.9369
15085,2011/12/19,1:20:00,24-50.0900N,119-42.5900E,233,18.959,32.9557
15086,2011/12/19,1:21:00,24-49.9800N,119-42.4200E,233,19.02,32.9656
15087,2011/12/19,1:22:00,24-49.8600N,119-42.2500E,232,19.092,32.9931
15088,2011/12/19,1:23:00,24-49.7400N,119-42.0800E,234,19.21,33.0144
15089,2011/12/19,1:24:00,24-49.6300N,119-41.9000E,234,19.304,33.0565
15090,2011/12/19,1:25:00,24-49.5200N,119-41.7300E,236,19.332,33.0986
15091,2011/12/19,1:26:00,24-49.4100N,119-41.5700E,230,19.32,33.1196
15092,2011/12/19,1:27:00,24-49.2900N,119-41.4000E,232,19.308,33.1275
15093,2011/12/19,1:28:00,24-49.1700N,119-41.2400E,231,19.301,33.118
15094,2011/12/19,1:29:00,24-49.0600N,119-41.0700E,233,19.314,33.1127
15095,2011/12/19,1:30:00,24-48.9500N,119-40.8900E,235,19.299,33.1153
15096,2011/12/19,1:31:00,24-48.8400N,119-40.7200E,234,19.293,33.1195
15097,2011/12/19,1:32:00,24-48.7300N,119-40.5400E,234,19.306,33.1116
15098,2011/12/19,1:33:00,24-48.6100N,119-40.3700E,230,19.317,33.119
15099,2011/12/19,1:34:00,24-48.4800N,119-40.2000E,231,19.317,33.1259
15100,2011/12/19,1:35:00,24-48.3700N,119-40.0300E,234,19.315,33.1404
15101,2011/12/19,1:36:00,24-48.2700N,119-39.8400E,239,19.308,33.145
15102,2011/12/19,1:37:00,24-48.1500N,119-39.6700E,228,19.295,33.1461
15103,2011/12/19,1:38:00,24-48.0100N,119-39.5100E,225,19.095,33.1429
15104,2011/12/19,1:39:00,24-47.8600N,119-39.3600E,221,18.83,33.1018
15105,2011/12/19,1:40:00,24-47.7100N,119-39.2100E,225,18.707,32.9621
15106,2011/12/19,1:41:00,24-47.5800N,119-39.0400E,230,18.551,32.7855
15107,2011/12/19,1:42:00,24-47.4500N,119-38.8700E,231,18.395,32.7086
15108,2011/12/19,1:43:00,24-47.3300N,119-38.7000E,230,18.32,32.593
15109,2011/12/19,1:44:00,24-47.2000N,119-38.5500E,225,18.287,32.4978
15110,2011/12/19,1:45:00,24-47.0600N,119-38.4000E,228,18.282,32.458
15111,2011/12/19,1:46:00,24-46.9300N,119-38.2300E,230,18.307,32.4377
15112,2011/12/19,1:47:00,24-46.8100N,119-38.0700E,232,18.279,32.4484
15113,2011/12/19,1:48:00,24-46.6900N,119-37.9100E,231,18.265,32.4431
15114,2011/12/19,1:49:00,24-46.5600N,119-37.7500E,225,18.199,32.4247
15115,2011/12/19,1:50:00,24-46.4200N,119-37.5900E,228,18.152,32.3971
15116,2011/12/19,1:51:00,24-46.3000N,119-37.4200E,235,18.121,32.3502
15117,2011/12/19,1:52:00,24-46.1900N,119-37.2500E,232,18.101,32.3211
15118,2011/12/19,1:53:00,24-46.0500N,119-37.0900E,224,18.069,32.3009
15119,2011/12/19,1:54:00,24-45.9300N,119-36.9300E,232,18.06,32.2707
15120,2011/12/19,1:55:00,24-45.8200N,119-36.7600E,232,18.047,32.2572
15121,2011/12/19,1:56:00,24-45.7000N,119-36.6100E,228,18.059,32.2481
15122,2011/12/19,1:57:00,24-45.5800N,119-36.4600E,229,18.059,32.2513
15123,2011/12/19,1:58:00,24-45.4500N,119-36.3100E,226,18.074,32.2561
15124,2011/12/19,1:59:00,24-45.3500N,119-36.1500E,238,18.088,32.2627
15125,2011/12/19,2:00:00,24-45.2400N,119-35.9800E,235,18.1,32.2675
15126,2011/12/19,2:01:00,24-45.1300N,119-35.8200E,228,18.096,32.2755
15127,2011/12/19,2:02:00,24-45.0000N,119-35.6800E,225,18.089,32.2786
15128,2011/12/19,2:03:00,24-44.8700N,119-35.5200E,230,18.078,32.2738
15129,2011/12/19,2:04:00,24-44.7700N,119-35.3500E,238,18.113,32.2671
15130,2011/12/19,2:05:00,24-44.6500N,119-35.1800E,231,18.11,32.2712
15131,2011/12/19,2:06:00,24-44.5300N,119-35.0200E,229,18.107,32.276
15132,2011/12/19,2:07:00,24-44.4100N,119-34.8700E,227,18.099,32.2711
15133,2011/12/19,2:08:00,24-44.2900N,119-34.7000E,231,18.083,32.2691
15134,2011/12/19,2:09:00,24-44.1700N,119-34.5500E,227,18.06,32.2597
15135,2011/12/19,2:10:00,24-44.0500N,119-34.3900E,232,18.074,32.2503
15136,2011/12/19,2:11:00,24-43.9400N,119-34.2200E,233,18.079,32.2436
15137,2011/12/19,2:12:00,24-43.8200N,119-34.0700E,230,18.078,32.2526
15138,2011/12/19,2:13:00,24-43.7000N,119-33.9100E,228,18.076,32.2541
15139,2011/12/19,2:14:00,24-43.5700N,119-33.7600E,226,18.143,32.2557
15140,2011/12/19,2:15:00,24-43.4500N,119-33.6000E,234,18.159,32.2703
15141,2011/12/19,2:16:00,24-43.3500N,119-33.4300E,235,18.156,32.2887
15142,2011/12/19,2:17:00,24-43.2300N,119-33.2800E,228,18.15,32.2924
15143,2011/12/19,2:18:00,24-43.1000N,119-33.1300E,227,18.148,32.2885
15144,2011/12/19,2:19:00,24-42.9900N,119-32.9700E,234,18.162,32.2837
15145,2011/12/19,2:20:00,24-42.8800N,119-32.8100E,234,18.161,32.2855
15146,2011/12/19,2:21:00,24-42.7700N,119-32.6600E,228,18.153,32.2868
15147,2011/12/19,2:22:00,24-42.6400N,119-32.5200E,221,18.144,32.281
15148,2011/12/19,2:23:00,24-42.5000N,119-32.3400E,232,18.111,32.2745
15149,2011/12/19,2:24:00,24-42.3900N,119-32.1700E,234,18.099,32.2636
15150,2011/12/19,2:25:00,24-42.2700N,119-32.0300E,228,18.092,32.2485
15151,2011/12/19,2:26:00,24-42.1500N,119-31.8800E,229,18.085,32.2435
15152,2011/12/19,2:27:00,24-42.0300N,119-31.7200E,231,18.086,32.2397
15153,2011/12/19,2:28:00,24-41.8900N,119-31.5300E,228,18.09,32.242
15154,2011/12/19,2:29:00,24-41.7800N,119-31.3800E,232,18.119,32.2413
15155,2011/12/19,2:30:00,24-41.6600N,119-31.2200E,232,18.109,32.2477
15156,2011/12/19,2:31:00,24-41.5400N,119-31.0500E,233,18.128,32.2487
15157,2011/12/19,2:32:00,24-41.4300N,119-30.8800E,234,18.148,32.2551
15158,2011/12/19,2:33:00,24-41.3000N,119-30.7200E,229,18.138,32.2641
15159,2011/12/19,2:34:00,24-41.1700N,119-30.5700E,222,18.165,32.2669
15160,2011/12/19,2:35:00,24-41.0500N,119-30.4100E,233,18.198,32.277
15161,2011/12/19,2:36:00,24-40.9400N,119-30.2400E,234,18.2,32.2879
15162,2011/12/19,2:37:00,24-40.8300N,119-30.0600E,236,18.216,32.2991
15163,2011/12/19,2:38:00,24-40.7100N,119-29.9000E,228,18.236,32.3029
15164,2011/12/19,2:39:00,24-40.6000N,119-29.7300E,238,18.237,32.312
15165,2011/12/19,2:40:00,24-40.5000N,119-29.5500E,235,18.243,32.3163
15166,2011/12/19,2:41:00,24-40.3900N,119-29.3800E,233,18.253,32.322
15167,2011/12/19,2:42:00,24-40.2700N,119-29.2000E,233,18.26,32.3284
15168,2011/12/19,2:43:00,24-40.1400N,119-29.0300E,229,18.291,32.3325
15169,2011/12/19,2:44:00,24-40.0200N,119-28.8600E,233,18.328,32.3478
15170,2011/12/19,2:45:00,24-39.9200N,119-28.6700E,240,18.356,32.3641
15171,2011/12/19,2:46:00,24-39.8100N,119-28.4900E,237,18.392,32.388
15172,2011/12/19,2:47:00,24-39.6800N,119-28.3000E,230,18.385,32.3992
15173,2011/12/19,2:48:00,24-39.5700N,119-28.1500E,231,18.401,32.4103
15174,2011/12/19,2:49:00,24-39.4700N,119-28.0000E,236,18.483,32.4191
15175,2011/12/19,2:50:00,24-39.3500N,119-27.8200E,234,18.508,32.4264
15176,2011/12/19,2:51:00,24-39.2400N,119-27.6500E,232,18.562,32.4781
15177,2011/12/19,2:52:00,24-39.1300N,119-27.4800E,237,18.628,32.4821
15178,2011/12/19,2:53:00,24-39.0300N,119-27.3000E,241,18.642,32.5268
15179,2011/12/19,2:54:00,24-38.9300N,119-27.1200E,231,18.737,32.5652
15180,2011/12/19,2:55:00,24-38.8000N,119-26.9500E,231,18.774,32.599
15181,2011/12/19,2:56:00,24-38.6700N,119-26.7800E,229,18.806,32.6233
15182,2011/12/19,2:57:00,24-38.5600N,119-26.6100E,238,18.831,32.6267
15183,2011/12/19,2:58:00,24-38.4600N,119-26.4200E,237,18.851,32.6267
15184,2011/12/19,2:59:00,24-38.3400N,119-26.2500E,234,18.862,32.6274
15185,2011/12/19,3:00:00,24-38.2300N,119-26.0800E,236,18.905,32.6276
15186,2011/12/19,3:01:00,24-38.1100N,119-25.9100E,232,18.969,32.6312
15187,2011/12/19,3:02:00,24-37.9900N,119-25.7400E,230,19,32.6428
15188,2011/12/19,3:03:00,24-37.8800N,119-25.5700E,236,19.088,32.6563
15189,2011/12/19,3:04:00,24-37.7800N,119-25.4000E,236,19.127,32.6701
15190,2011/12/19,3:05:00,24-37.6700N,119-25.2200E,234,19.162,32.6947
15191,2011/12/19,3:06:00,24-37.5500N,119-25.0700E,228,19.183,32.7034
15192,2011/12/19,3:07:00,24-37.4400N,119-24.9000E,236,19.194,32.7141
15193,2011/12/19,3:08:00,24-37.3400N,119-24.7100E,239,19.192,32.719
15194,2011/12/19,3:09:00,24-37.2300N,119-24.5500E,226,19.19,32.7218
15195,2011/12/19,3:10:00,24-37.1000N,119-24.4000E,231,19.183,32.7218
15196,2011/12/19,3:11:00,24-36.9900N,119-24.2300E,236,19.17,32.7153
15197,2011/12/19,3:12:00,24-36.9000N,119-24.0500E,240,19.164,32.7022
15198,2011/12/19,3:13:00,24-36.8000N,119-23.8700E,235,19.17,32.6903
15199,2011/12/19,3:14:00,24-36.6800N,119-23.7000E,231,19.169,32.6901
15200,2011/12/19,3:15:00,24-36.5600N,119-23.5300E,230,19.149,32.6955
15201,2011/12/19,3:16:00,24-36.4400N,119-23.3700E,233,19.138,32.6909
15202,2011/12/19,3:17:00,24-36.3300N,119-23.1900E,234,19.124,32.6754
15203,2011/12/19,3:18:00,24-36.2200N,119-23.0200E,232,19.115,32.664
15204,2011/12/19,3:19:00,24-36.1200N,119-22.8500E,238,19.09,32.6565
15205,2011/12/19,3:20:00,24-36.0200N,119-22.6800E,238,19.077,32.6455
15206,2011/12/19,3:21:00,24-35.9100N,119-22.5100E,231,19.076,32.6317
15207,2011/12/19,3:22:00,24-35.7900N,119-22.3600E,233,19.064,32.6267
15208,2011/12/19,3:23:00,24-35.6900N,119-22.1800E,241,19.065,32.6228
15209,2011/12/19,3:24:00,24-35.5900N,119-22.0100E,233,19.06,32.6125
15210,2011/12/19,3:25:00,24-35.4700N,119-21.8500E,228,19.058,32.6105
15211,2011/12/19,3:26:00,24-35.3400N,119-21.6900E,227,19.054,32.6071
15212,2011/12/19,3:27:00,24-35.2100N,119-21.5400E,226,19.053,32.6001
15213,2011/12/19,3:28:00,24-35.0900N,119-21.3900E,229,19.051,32.5945
15214,2011/12/19,3:29:00,24-34.9800N,119-21.2300E,234,19.065,32.5874
15215,2011/12/19,3:30:00,24-34.8600N,119-21.0600E,230,19.068,32.5814
15216,2011/12/19,3:31:00,24-34.7300N,119-20.9200E,224,19.073,32.5753
15217,2011/12/19,3:32:00,24-34.6000N,119-20.7600E,226,19.081,32.5725
15218,2011/12/19,3:33:00,24-34.4800N,119-20.6000E,233,19.087,32.5695
15219,2011/12/19,3:34:00,24-34.3700N,119-20.4300E,236,19.094,32.5687
15220,2011/12/19,3:35:00,24-34.2500N,119-20.2600E,231,19.094,32.5677
15221,2011/12/19,3:36:00,24-34.1200N,119-20.1200E,223,19.09,32.5665
15222,2011/12/19,3:37:00,24-34.0000N,119-19.9600E,233,19.091,32.5654
15223,2011/12/19,3:38:00,24-33.8900N,119-19.8000E,231,19.092,32.5661
15224,2011/12/19,3:39:00,24-33.7600N,119-19.6500E,225,19.092,32.5645
15225,2011/12/19,3:40:00,24-33.6400N,119-19.5000E,231,19.092,32.5637
15226,2011/12/19,3:41:00,24-33.5400N,119-19.3400E,238,19.09,32.5639
15227,2011/12/19,3:42:00,24-33.4200N,119-19.1900E,227,19.087,32.5634
15228,2011/12/19,3:43:00,24-33.3000N,119-19.0400E,227,19.087,32.5634
15229,2011/12/19,3:44:00,24-33.1700N,119-18.8800E,229,19.088,32.5614
15230,2011/12/19,3:45:00,24-33.0600N,119-18.7200E,233,19.087,32.5615
15231,2011/12/19,3:46:00,24-32.9400N,119-18.5600E,232,19.086,32.561
15232,2011/12/19,3:47:00,24-32.8400N,119-18.4000E,234,19.085,32.5611
15233,2011/12/19,3:48:00,24-32.7200N,119-18.2600E,224,19.081,32.5592
15234,2011/12/19,3:49:00,24-32.5900N,119-18.1100E,227,19.079,32.5582
15235,2011/12/19,3:50:00,24-32.4600N,119-17.9600E,230,19.079,32.5577
15236,2011/12/19,3:51:00,24-32.3600N,119-17.8000E,236,19.075,32.5561
15237,2011/12/19,3:52:00,24-32.2400N,119-17.6400E,227,19.075,32.5555
15238,2011/12/19,3:53:00,24-32.1100N,119-17.4900E,227,19.072,32.5539
15239,2011/12/19,3:54:00,24-31.9800N,119-17.3300E,232,19.071,32.5526
15240,2011/12/19,3:55:00,24-31.8800N,119-17.1600E,235,19.067,32.5509
15241,2011/12/19,3:56:00,24-31.7500N,119-16.9700E,232,19.066,32.5475
15242,2011/12/19,3:57:00,24-31.6100N,119-16.8100E,227,19.062,32.5448
15243,2011/12/19,3:58:00,24-31.4800N,119-16.6600E,226,19.059,32.5428
15244,2011/12/19,3:59:00,24-31.3800N,119-16.5300E,230,19.058,32.5401
15245,2011/12/19,4:00:00,24-31.2700N,119-16.3600E,235,19.053,32.5385
15246,2011/12/19,4:01:00,24-31.1500N,119-16.1900E,230,19.047,32.5357
15247,2011/12/19,4:02:00,24-31.0000N,119-16.0100E,224,19.043,32.5319
15248,2011/12/19,4:03:00,24-30.8700N,119-15.8600E,226,19.037,32.5277
15249,2011/12/19,4:04:00,24-30.7600N,119-15.7000E,234,19.028,32.5241
15250,2011/12/19,4:05:00,24-30.6500N,119-15.5300E,233,19.025,32.5173
15251,2011/12/19,4:06:00,24-30.5500N,119-15.3900E,227,19.019,32.5129
15252,2011/12/19,4:07:00,24-30.4000N,119-15.2200E,228,19.018,32.5115
15253,2011/12/19,4:08:00,24-30.2800N,119-15.0500E,230,19.015,32.5083
15254,2011/12/19,4:09:00,24-30.1600N,119-14.8800E,234,19.018,32.5076
15255,2011/12/19,4:10:00,24-30.0400N,119-14.7200E,229,19.018,32.5062
15256,2011/12/19,4:11:00,24-29.9200N,119-14.5600E,230,19.021,32.5056
15257,2011/12/19,4:12:00,24-29.8000N,119-14.4200E,226,19.028,32.5073
15258,2011/12/19,4:13:00,24-29.6800N,119-14.2600E,232,19.037,32.509
15259,2011/12/19,4:14:00,24-29.5800N,119-14.0900E,236,19.047,32.5121
15260,2011/12/19,4:15:00,24-29.4600N,119-13.9300E,228,19.06,32.5142
15261,2011/12/19,4:16:00,24-29.3300N,119-13.7800E,224,19.069,32.5185
15262,2011/12/19,4:17:00,24-29.2100N,119-13.6500E,226,19.074,32.5238
15263,2011/12/19,4:18:00,24-29.0900N,119-13.4600E,235,19.08,32.527
15264,2011/12/19,4:19:00,24-28.9800N,119-13.3000E,231,19.093,32.5271
15265,2011/12/19,4:20:00,24-28.8600N,119-13.1400E,228,19.099,32.5298
15266,2011/12/19,4:21:00,24-28.7500N,119-12.9800E,234,19.109,32.5354
15267,2011/12/19,4:22:00,24-28.6400N,119-12.8200E,231,19.113,32.5401
15268,2011/12/19,4:23:00,24-28.5100N,119-12.6700E,226,19.119,32.5447
15269,2011/12/19,4:24:00,24-28.4000N,119-12.5400E,228,19.126,32.5503
15270,2011/12/19,4:25:00,24-28.2800N,119-12.3800E,229,19.129,32.5548
15271,2011/12/19,4:26:00,24-28.1600N,119-12.2200E,234,19.141,32.5574
15272,2011/12/19,4:27:00,24-28.0500N,119-12.0400E,234,19.156,32.5623
15273,2011/12/19,4:28:00,24-27.9400N,119-11.8700E,232,19.163,32.5728
15274,2011/12/19,4:29:00,24-27.8200N,119-11.7100E,231,19.174,32.5784
15275,2011/12/19,4:30:00,24-27.7000N,119-11.5300E,234,19.183,32.5846
15276,2011/12/19,4:31:00,24-27.6000N,119-11.3500E,236,19.2,32.5901
15277,2011/12/19,4:32:00,24-27.4800N,119-11.1800E,230,19.213,32.5972
15278,2011/12/19,4:33:00,24-27.3500N,119-11.0200E,229,19.221,32.6038
15279,2011/12/19,4:34:00,24-27.2200N,119-10.8500E,229,19.228,32.6086
15280,2011/12/19,4:35:00,24-27.1000N,119-10.6800E,230,19.234,32.6121
15281,2011/12/19,4:36:00,24-26.9900N,119-10.5100E,238,19.233,32.6153
15282,2011/12/19,4:37:00,24-26.8800N,119-10.3400E,231,19.227,32.6181
15283,2011/12/19,4:38:00,24-26.7500N,119-10.1900E,227,19.222,32.6204
15284,2011/12/19,4:39:00,24-26.6300N,119-10.0400E,228,19.226,32.6224
15285,2011/12/19,4:40:00,24-26.5200N,119-09.8700E,234,19.235,32.6235
15286,2011/12/19,4:41:00,24-26.4000N,119-09.7100E,232,19.225,32.6263
15287,2011/12/19,4:42:00,24-26.2900N,119-09.5400E,232,19.209,32.6271
15288,2011/12/19,4:43:00,24-26.1700N,119-09.3800E,230,19.196,32.6247
15289,2011/12/19,4:44:00,24-26.0500N,119-09.2200E,233,19.171,32.6203
15290,2011/12/19,4:45:00,24-25.9500N,119-09.0500E,233,19.146,32.6151
15291,2011/12/19,4:46:00,24-25.8300N,119-08.8800E,232,19.115,32.6088
15292,2011/12/19,4:47:00,24-25.7000N,119-08.7200E,226,19.091,32.6025
15293,2011/12/19,4:48:00,24-25.5800N,119-08.5700E,228,19.077,32.5983
15294,2011/12/19,4:49:00,24-25.4700N,119-08.4000E,237,19.065,32.5971
15295,2011/12/19,4:50:00,24-25.3600N,119-08.2200E,235,19.045,32.596
15296,2011/12/19,4:51:00,24-25.2400N,119-08.0500E,229,19.035,32.5966
15297,2011/12/19,4:52:00,24-25.1200N,119-07.8800E,230,19.017,32.5974
15298,2011/12/19,4:53:00,24-24.9900N,119-07.7200E,229,19.003,32.5979
15299,2011/12/19,4:54:00,24-24.8700N,119-07.5600E,230,18.991,32.5999
15300,2011/12/19,4:55:00,24-24.7500N,119-07.3900E,232,18.981,32.601
15301,2011/12/19,4:56:00,24-24.6300N,119-07.2300E,231,18.975,32.6025
15302,2011/12/19,4:57:00,24-24.5100N,119-07.0800E,228,18.975,32.6032
15303,2011/12/19,4:58:00,24-24.3900N,119-06.9100E,231,18.976,32.6048
15304,2011/12/19,4:59:00,24-24.2700N,119-06.7400E,234,18.974,32.6049
15305,2011/12/19,5:00:00,24-24.1600N,119-06.5700E,232,18.975,32.6044
15306,2011/12/19,5:01:00,24-24.0300N,119-06.4100E,227,18.973,32.604
15307,2011/12/19,5:02:00,24-23.9100N,119-06.2600E,229,18.969,32.6045
15308,2011/12/19,5:03:00,24-23.7900N,119-06.0900E,232,18.973,32.6052
15309,2011/12/19,5:04:00,24-23.6700N,119-05.9300E,231,18.968,32.6039
15310,2011/12/19,5:05:00,24-23.5600N,119-05.7600E,232,18.969,32.6038
15311,2011/12/19,5:06:00,24-23.4400N,119-05.6000E,232,18.967,32.6042
15312,2011/12/19,5:07:00,24-23.3200N,119-05.4300E,232,18.963,32.6046
15313,2011/12/19,5:08:00,24-23.2000N,119-05.2700E,230,18.962,32.6048
15314,2011/12/19,5:09:00,24-23.0800N,119-05.1000E,233,18.96,32.6061
15315,2011/12/19,5:10:00,24-22.9700N,119-04.9300E,232,18.957,32.6064
15316,2011/12/19,5:11:00,24-22.8400N,119-04.7800E,226,18.955,32.6063
15317,2011/12/19,5:12:00,24-22.7200N,119-04.6200E,232,18.949,32.6066